Regional Weather Roundup
Issued by NWS

Home | Current Version | Previous Version | Text Only | Print | Product List | Glossary On
Versions: 1 2 3 4 5 6 7 8 9 10 11 12 13 14 15 16 17 18 19 20 21 22 23 24 25 26 27 28 29 30 31 32 33 34 35 36 37 38 39 40 41 42 43 44 45 46 47 48 49 50
000
ASUS43 KOAX 202010
RWRNE

WEATHER ROUNDUP FOR NEBRASKA
NATIONAL WEATHER SERVICE OMAHA NE
200 PM CST SAT DEC 20 2014

NOTES: SATELLITE DATA IS BEING USED TO AUGMENT CLOUD COVER ABOVE
       12000 FEET.
       "FAIR" INDICATES FEW OR NO CLOUDS BELOW 12,000 FEET WITH NO
       SIGNIFICANT WEATHER AND/OR OBSTRUCTIONS TO VISIBILITY.

  * THESE STATIONS DO NOT REPORT WEATHER SUCH AS RAIN...SNOW OR FOG.

NEZ001>004-019>022-054>056-202100-
NEBRASKA PANHANDLE

CITY           SKY/WX    TMP DP  RH WIND       PRES   REMARKS
SCOTTSBLUFF    SUNNY     41  30  65 N6        29.94F
ALLIANCE       MOSUNNY   39  29  67 W10       29.92F WCI  32
CHADRON        MOSUNNY   45  29  53 W5        29.92F
KIMBALL        MOSUNNY   45  25  46 W20       29.93F
SIDNEY         MOSUNNY   45  29  53 NW9       29.96F
$$

NEZ057>060-069>072-079>082-202100-
SOUTHWEST NEBRASKA

CITY           SKY/WX    TMP DP  RH WIND       PRES   REMARKS
NORTH PLATTE   CLOUDY    37  27  67 W7        29.95F WCI  32
IMPERIAL       PTSUNNY   45  28  51 NW5       29.95F
LEXINGTON      PTSUNNY   40  32  73 SW3       29.96F
MCCOOK         PTSUNNY   44  30  57 S6        29.97F
OGALLALA       PTSUNNY   34  28  80 W5        29.95F WCI  30
$$

NEZ005>010-023>029-035>040-094-202100-
NORTH CENTRAL NEBRASKA

CITY           SKY/WX    TMP DP  RH WIND       PRES   REMARKS
VALENTINE      CLOUDY    38  27  64 W7        29.91F WCI  33
AINSWORTH      CLOUDY    36  28  74 SW6       29.91F WCI  31
BROKEN BOW     PTSUNNY   42  32  67 S7        29.94F
O`NEILL        MOSUNNY   30  30 100 S3        29.95F
THEDFORD       CLOUDY    43  30  60 W6        29.91F
$$

NEZ041-046>049-061>064-073>077-083>087-202100-
SOUTH CENTRAL NEBRASKA

CITY           SKY/WX    TMP DP  RH WIND       PRES   REMARKS
GRAND ISLAND   PTSUNNY   33  32  96 CALM      30.00F FOG
AURORA         CLOUDY    33  33 100 S8        30.01S FOG     WCI  26
HASTINGS       SUNNY     41  32  70 S7        29.98F
HEBRON         PTSUNNY   35  33  94 S3        30.03F FOG
HOLDREGE       PTSUNNY   38  32  77 SW6       29.97F WCI  34
KEARNEY *      MOSUNNY   36  28  75 S8        29.97F WCI  29
YORK           FOG       32  32 100 CALM      30.02F VSB 1/4
$$

NEZ011>018-030>034-042>045-202100-
NORTHEAST NEBRASKA

CITY           SKY/WX    TMP DP  RH WIND       PRES   REMARKS
NORFOLK        CLOUDY    34  31  88 SE8       29.99F FOG     WCI  27
ALBION         FOG       31  29  93 S7        29.99S VSB 1/4 WCI  24
BLAIR          CLOUDY    33  32  95 SE3       30.05S FOG
COLUMBUS *     CLOUDY    34  28  80 SE7       30.03S WCI  28
FREMONT        CLOUDY    33  33  98 SE7       30.05F FOG     WCI  27
TEKAMAH        CLOUDY    34  31  88 SE8       30.07S WCI  27
WAYNE          CLOUDY    33  31  90 S8        30.02F WCI  26
$$

NEZ050>053-065>068-078-088>093-202100-
SOUTHEAST NEBRASKA

CITY           SKY/WX    TMP DP  RH WIND       PRES   REMARKS
LINCOLN        CLOUDY    34  30  85 SE6       30.06F WCI  29
OMAHA EPPLEY   CLOUDY    34  32  92 S6        30.08F FOG     WCI  29
BEATRICE       CLOUDY    37  33  84 S5        30.04F WCI  34
FALLS CITY     CLOUDY    35  32  88 SW6       30.08F FOG     WCI  30
NEBRASKA CITY  CLOUDY    35  34  96 SW5       30.06F FOG     WCI  31
PLATTSMOUTH    CLOUDY    33  32  96 S5        30.06F FOG     WCI  28
$$

NEZ044-045-051>053-067-202100-
OMAHA AREA

CITY           SKY/WX    TMP DP  RH WIND       PRES   REMARKS
OMAHA EPPLEY   CLOUDY    34  32  92 S6        30.08F FOG     WCI  29
BLAIR          CLOUDY    33  32  95 SE3       30.05S FOG
FREMONT        CLOUDY    33  33  98 SE7       30.05F FOG     WCI  27
MILLARD        CLOUDY    34  32  93 NE5       30.07S FOG     WCI  30
OFFUTT AFB     CLOUDY    34  32  93 E3        30.06F
PLATTSMOUTH    CLOUDY    33  32  96 S5        30.06F FOG     WCI  28
WAHOO          FOG       33  32  95 S7        30.05F VSB 1   WCI  27
$$



USA.gov is the U.S. government's official web portal to all federal, state and local government web resources and services.